Regional Weather Roundup
Issued by NWS

Home | Current Version | Previous Version | Graphics & Text | Print | Product List | Glossary On
Versions: 1 2 3 4 5 6 7 8 9 10 11 12 13 14 15 16 17 18 19 20 21 22 23 24 25 26 27
000
ASUS45 KBOU 220606
RWRCO

WEATHER ROUNDUP FOR COLORADO
NATIONAL WEATHER SERVICE DENVER/BOULDER CO
1200 AM MDT TUE APR 22 2014

NOTE: "FAIR" INDICATES FEW OR NO CLOUDS BELOW 12000 FEET WITH NO
SIGNIFICANT WEATHER AND/OR OBSTRUCTIONS TO VISIBILITY.

COZ001>005-013-030-031-220700-
...NORTHWEST COLORADO...

CITY           SKY/WX    TMP DP  RH WIND       PRES   REMARKS
CRAIG          MOCLDY    46  33  60 E3        30.13S
HAYDEN         MOCLDY    48  27  43 E9        30.17S
MEEKER         PTCLDY    47  32  56 NE9       30.14F
MOUNT WERNER   MOCLDY    45  18  33 SW13      30.34F
STEAMBOAT SPGS MOCLDY    45  24  43 CALM      30.17S
WALDEN         PTCLDY    34  27  75 SE8       30.21F WCI  27
$$

COZ006>008-011-220700-
...WEST CENTRAL VALLEYS...

CITY           SKY/WX    TMP DP  RH WIND       PRES   REMARKS
GRAND JUNCTION CLEAR     56  31  38 E9        30.05F
MONTROSE       PTCLDY    54  30  40 SE10      30.14F
EAGLE          PTCLDY    45  28  53 CALM      30.21S
RIFLE          PTCLDY    50  32  50 CALM      30.12S
DELTA          NOT AVBL
NUCLA          NOT AVBL
$$

COZ017>023-064>068-220700-
...SOUTHWEST COLORADO...

CITY           SKY/WX    TMP DP  RH WIND       PRES   REMARKS
DURANGO        CLEAR     49  26  41 N8        30.20F
CORTEZ         PTCLDY    45  30  55 NE5       30.15F
PAGOSA SPRINGS CLEAR     44  24  46 NE3       30.27S
TELLURIDE      NOT AVBL
WOLF CREEK PAS PTCLDY    34  21  60 SW21      30.45S WCI  22
$$

COZ009-010-012-014-032>034-037-058>063-220700-
...CENTRAL COLORADO...

CITY           SKY/WX    TMP DP  RH WIND       PRES   REMARKS
ASPEN          PTCLDY    43  27  53 S7        30.23F
BUENA VISTA    MOCLDY    42  32  68 CALM      30.30S
COPPER MTN     PTCLDY    37  21  52 S13       30.43F
BERTHOUD PASS  FAIR      30  21  69 W8        30.45S WCI  23
COTTONWOOD PAS MOCLDY    41  32  70 CALM      30.37S
GUNNISON       PTCLDY    45  25  45 CALM      30.30R
KREMMLING      CLEAR     37  28  70 CALM      30.23S
LEADVILLE      PTCLDY    31  21  66 N3        30.35S
MONARCH PASS   PTCLDY    36  19  51 W12       30.55S
SALIDA         MOCLDY    46  32  59 SW9       30.35F
SUNLIGHT       PTCLDY    39  28  65 CALM      30.38F
WILKERSON PASS PTCLDY    34  28  80 SW7       30.43F WCI  28
$$

COZ069>075-220700-
...SAN LUIS VALLEY/SANGRE DE CRISTO MOUNTAINS...

CITY           SKY/WX    TMP DP  RH WIND       PRES   REMARKS
ALAMOSA        PTCLDY    41  36  82 SE5       30.25F
LA VETA PASS   PTCLDY    39  32  75 SW9       30.37S
SAGUACHE       PTCLDY    43  25  49 NW7       30.28S
$$

COZ035-036-038>040-220700-
...NORTHERN COLORADO FRONT RANGE...

CITY           SKY/WX    TMP DP  RH WIND       PRES   REMARKS
DENVER INTL AP PTCLDY    56  31  38 S22G30    30.12F
DMNS CITY PARK   N/A     58  32  38 S12G20    30.12F
AURORA         PTCLDY    54  32  43 S22       30.13F
FRONT RANGE AP NOT AVBL
ERIE MUNI ARPT PTCLDY    46  41  81 CALM      30.11F
BOULDER MUN AP PTCLDY    50  39  66 CALM      30.11F
CENTENNIAL     PTCLDY    52  32  46 S16G23    30.16F
BROOMFIELD     PTCLDY    52  37  58 CALM      30.13F
FORT COLLINS   MOCLDY    48  36  61 NW5       30.13F
LONGMONT       NOT AVBL
$$

COZ041-046-047-076>085-087-088-220700-
...PIKES PEAK/PALMER DIVIDE AND SOUTHERN FOOTHILLS...

CITY           SKY/WX    TMP DP  RH WIND       PRES   REMARKS
COLO. SPRINGS  PTCLDY    50  29  44 E7        30.23F
A. F. ACADEMY  PTCLDY    48  30  49 SE6       30.23F
ELLICOTT       NOT AVBL
FALCON         PTCLDY    44  29  55 S6        30.26F
FORT CARSON    MOCLDY    49  31  49 SE2       30.20F
LIMON          PTCLDY    45  29  53 S9        30.20F
MONUMENT HILL  PTCLDY    45  28  53 S21G26    30.22F
TRINIDAD       PTCLDY    53  43  68 S10       30.21F
$$

COZ042>045-048>051-090-091-220700-
...NORTHEAST COLORADO...

CITY           SKY/WX    TMP DP  RH WIND       PRES   REMARKS
GREELEY ARPT   MOCLDY    46  34  61 SE6       30.11F
AKRON          PTCLDY    50  32  50 S15       30.15F
BURLINGTON     PTCLDY    47  30  51 S14       30.19F
WRAY           CLEAR     53  31  42 SE10      30.17S
STERLING       NOT AVBL
HOLYOKE        NOT AVBL
FORT MORGAN    NOT AVBL
$$

COZ086-089-092>099-220700-
...SOUTHEAST COLORADO...

CITY           SKY/WX    TMP DP  RH WIND       PRES   REMARKS
PUEBLO         MOCLDY    54  33  45 NE9       30.16F
LA JUNTA       CLEAR     56  37  49 SE8       30.17F
LAMAR          CLEAR     54  36  50 SE9       30.16S
SPRINGFIELD      N/A     50  41  71 E6        30.19F
$$



USA.gov is the U.S. government's official web portal to all federal, state and local government web resources and services.